CAPE
0 0 0 0 0 0 0 0 1 0 2 4 18 7 4 5 0 0 0 46 156 307 449 671 829 934 620 667 664 557 503 357 84 2 1 1 0 1 1 1 1 1 0 0
0 0 0 0 0 0 4 13 28 28 0 3 5 6 17 0 0 0 0 0 83 334 658 828 981 823 484 186 39 9 94 6 0 2 2 1 0 0 0 0 0 0 0 0
0 0 0 0 0 0 0 0 0 0 0 0 16 18 17 1 0 0 0 0 0 307 766 899 998 765 606 209 1 0 0 0 0 0 0 0 0 0 0 0 0 0 0 0
0 0 0 0 0 0 0 0 0 0 0 0 0 1 0 0 1 0 0 0 13 205 676 871 795 654 300 19 0 0 0 0 0 0 0 0 0 0 0 0 0 0 0 0
16 6 0 0 0 0 0 0 0 0 0 0 0 0 2 0 0 0 0 13 204 394 517 438 355 58 0 0 0 0 0 0 0 0 0 0 0 0 0 0 0 0 0 0
12 21 1 0 0 0 1 0 0 0 0 0 0 2 0 0 0 7 29 52 99 120 121 83 0 0 0 0 0 0 0 0 0 0 0 0 0 0 0 0 0 0 0 0
0 3 1 7 0 3 1 0 0 2 13 2 0 2 0 0 0 0 1 0 0 0 0 0 0 0 0 0 0 0 0 0 0 0 0 0 0 0 0 0 0 0 0 0
0 0 0 43 11 6 0 0 0 14 25 3 1 0 0 0 0 0 0 0 0 0 0 0 0 0 0 0 0 0 0 0 0 0 0 0 0 0 0 0 0 0 0 0
0 0 8 0 7 5 0 1 70 96 81 43 9 2 0 0 0 0 0 0 0 0 0 0 0 0 0 0 0 0 0 0 0 0 0 0 0 0 0 0 0 0 0 0
19 0 0 0 0 0 0 0 7 5 43 37 20 1 0 0 0 0 0 0 0 0 0 0 0 0 0 0 0 0 0 0 0 0 0 0 0 0 0 0 0 0 0 0
0 0 0 7 3 0 0 0 0 8 0 7 1 9 0 0 0 0 0 0 0 0 0 0 0 0 0 0 0 0 0 0 0 0 0 0 0 0 0 0 0 0 0 0
0 0 1 14 71 45 12 0 0 0 0 4 1 0 0 0 0 0 0 0 0 0 0 0 0 0 0 0 0 0 0 0 0 0 0 0 0 0 0 0 0 0 0 0
0 0 42 42 21 32 36 21 0 0 1 2 0 0 0 0 0 0 0 0 0 0 0 0 0 0 0 0 0 0 0 0 0 0 0 0 0 0 0 0 0 0 0 0
0 30 18 4 12 0 1 0 0 0 0 0 0 0 0 0 0 0 0 0 0 0 0 0 0 0 0 0 0 0 0 0 0 0 0 0 0 0 0 0 0 0 0 0
0 0 0 0 0 0 0 0 0 0 0 0 0 0 0 0 0 0 0 0 0 0 0 0 0 0 0 0 0 0 0 0 0 0 0 0 0 0 0 0 0 0 0 0
0 0 0 0 0 0 0 0 0 0 0 0 0 0 0 0 0 0 0 0 0 0 0 0 0 0 0 0 0 0 0 0 0 1 0 0 0 0 0 0 0 0 0 0
0 0 0 0 0 0 0 0 0 0 0 0 0 0 0 0 0 0 0 0 0 0 0 0 0 0 0 0 0 0 0 0 0 0 0 0 0 0 0 0 0 0 0 0
2 2 1 0 0 0 0 0 0 0 0 0 0 0 0 0 0 0 0 0 0 0 0 0 0 0 0 0 0 0 0 0 0 0 0 0 0 0 0 0 0 0 0 0
5 5 5 5 5 3 5 4 3 3 2 0 0 1 1 1 1 0 0 0 0 0 0 0 0 0 0 0 0 0 0 0 0 0 0 0 0 0 0 0 0 0 0 0
1 3 1 3 3 3 3 3 1 1 1 1 1 0 0 0 0 0 0 0 0 0 0 0 0 0 0 0 0 0 0 0 0 0 0 0 0 0 0 0 0 0 0 0
1 1 1 0 0 0 0 1 1 0 1 1 0 0 0 0 0 0 0 0 0 0 0 0 0 0 0 0 0 0 0 0 0 0 0 0 0 0 0 0 0 0 0 0
1 0 1 1 0 1 0 0 0 0 0 0 0 0 0 0 0 0 0 0 0 0 0 0 0 0 0 0 0 0 0 0 0 0 0 0 0 0 0 0 0 0 0 0
0 1 1 0 0 0 0 0 0 0 0 0 0 0 0 0 0 0 0 0 0 0 0 0 0 0 0 0 0 0 0 0 0 0 0 0 0 0 0 0 0 0 0 0
0 0 0 0 0 0 0 0 0 0 0 0 0 0 0 0 0 0 0 0 0 0 0 0 0 0 0 0 0 0 0 0 0 0 0 0 0 0 0 0 0 0 0 0
1 0 0 0 0 0 0 0 0 0 0 0 0 0 0 0 0 0 0 0 0 0 0 0 0 0 0 0 0 0 0 0 0 0 0 0 0 0 0 0 0 0 0 0
0 0 0 0 0 0 0 0 0 0 0 0 0 0 0 0 0 0 0 0 0 0 0 0 0 0 0 0 0 0 0 0 0 0 0 0 0 0 0 0 0 0 0 0
0 0 0 0 0 0 0 0 0 0 0 0 0 0 0 0 0 0 0 0 0 0 0 0 0 0 0 0 0 0 0 0 0 0 0 0 0 0 0 0 0 0 0 0
CIN
0 0 0 0 0 0 0 0 -4 0 -14 -15 -28 -28 -11 -29 0 -18 0 -33 -59 -79 -95 -90 -111 -145 -252 -237 -230 -241 -221 -272 -338 0 0 0 0 0 0 0 0 0 0 0
0 0 0 0 0 0 -14 -21 -22 -29 -3 -22 -25 -42 -16 -4 0 0 0 0 -50 -52 -67 -68 -120 -214 -305 -398 -434 -369 -386 -286 0 0 0 0 0 0 0 0 0 0 0 0
0 0 0 0 0 0 0 0 0 0 0 -8 -28 -23 -29 -27 0 0 0 0 0 -50 -53 -79 -115 -198 -271 -364 -73 0 0 0 0 0 0 0 0 0 0 0 0 0 0 0
0 -8 0 0 0 0 0 0 0 0 0 0 -9 -18 0 -3 -11 0 0 0 -41 -81 -106 -123 -151 -180 -293 -181 0 0 0 0 0 0 0 0 0 0 0 0 0 0 0 0
-3 -6 0 0 0 0 0 0 0 0 0 0 0 0 -34 0 -28 -34 0 -112 -149 -174 -202 -226 -201 -315 -1 0 0 0 0 0 0 0 0 0 0 0 0 0 0 0 0 0
-44 -8 -2 0 0 0 -12 0 0 0 0 0 0 -23 -8 0 0 -144 -182 -218 -229 -286 -292 -299 0 0 0 0 0 0 0 0 0 0 0 0 0 0 0 0 0 0 0 0
-29 -53 -8 -10 0 -20 -7 0 0 -11 -55 -51 0 -26 0 0 0 0 -149 0 0 0 0 0 0 0 0 0 0 0 0 0 0 0 0 0 0 0 0 0 0 0 0 0
0 0 0 -49 -25 -6 0 0 0 -39 -24 -14 -40 0 0 0 0 0 0 0 0 0 0 0 0 0 0 0 0 0 0 0 0 0 0 0 0 0 0 0 0 0 0 0
0 0 -37 0 -118 -92 0 -12 -36 -53 -41 -93 -92 -79 0 0 0 0 0 0 0 0 0 0 0 0 0 0 0 0 0 0 0 0 0 0 0 0 0 0 0 0 0 0
-89 0 0 0 0 0 0 0 -221 -128 -77 -117 -95 -64 0 0 0 0 0 0 0 0 0 0 0 0 0 0 0 0 0 0 0 0 0 0 0 0 0 0 0 0 0 0
-40 0 0 -3 -3 0 -1 0 0 -172 0 -77 -25 -157 0 0 0 0 0 0 0 0 0 0 0 0 0 0 0 0 0 0 0 0 0 0 0 0 0 0 0 0 0 0
0 0 -20 -6 -21 -54 -57 0 0 0 0 -61 -23 -16 0 0 0 0 0 0 0 0 0 0 0 0 0 0 0 0 0 0 0 0 0 0 0 0 0 0 0 0 0 0
0 -2 -32 -37 -96 -132 -91 -110 0 0 -18 -100 0 0 0 0 0 0 0 0 0 0 0 0 0 0 0 0 0 0 0 0 0 0 0 0 0 0 0 0 0 0 0 0
0 -86 -53 -74 -119 -88 -245 0 -220 0 0 0 0 0 0 0 0 0 0 0 0 0 0 0 0 0 0 0 0 0 0 0 0 0 0 0 0 0 0 0 0 0 0 0
0 0 0 0 0 0 0 0 0 0 0 0 0 0 0 0 0 0 0 0 0 0 0 0 0 0 0 0 0 0 0 0 0 0 0 0 0 0 0 0 0 0 0 0
0 0 0 0 0 0 0 0 0 0 0 0 0 0 0 0 0 0 0 0 0 0 0 0 0 0 0 0 0 0 0 0 0 0 0 0 0 0 0 0 0 0 0 0
0 0 0 0 0 0 0 0 0 0 0 0 0 0 0 0 0 0 0 0 0 0 0 0 0 0 0 0 0 0 0 0 0 0 0 0 0 0 0 0 0 0 0 0
0 0 0 0 0 0 0 0 0 0 0 0 0 0 0 0 0 0 0 0 0 0 0 0 0 0 0 0 0 0 0 0 0 0 0 0 0 0 0 0 0 0 0 0
0 0 0 0 0 0 0 0 0 0 0 0 0 0 0 0 0 0 0 0 0 0 0 0 0 0 0 0 0 0 0 0 0 0 0 0 0 0 0 0 0 0 0 0
0 0 0 0 0 0 0 0 0 0 0 0 0 0 0 0 0 0 0 0 0 0 0 0 0 0 0 0 0 0 0 0 0 0 0 0 0 0 0 0 0 0 0 0
0 0 0 0 0 0 0 0 0 0 0 0 0 0 0 0 0 0 0 0 0 0 0 0 0 0 0 0 0 0 0 0 0 0 0 0 0 0 0 0 0 0 0 0
0 0 0 0 0 0 0 0 0 0 0 0 0 0 0 0 0 0 0 0 0 0 0 0 0 0 0 0 0 0 0 0 0 0 0 0 0 0 0 0 0 0 0 0
0 0 0 0 0 0 0 0 0 0 0 0 0 0 0 0 0 0 0 0 0 0 0 0 0 0 0 0 0 0 0 0 0 0 0 0 0 0 0 0 0 0 0 0
0 0 0 0 0 0 0 0 0 0 0 0 0 0 0 0 0 0 0 0 0 0 0 0 0 0 0 0 0 0 0 0 0 0 0 0 0 0 0 0 0 0 0 0
0 0 0 0 0 0 0 0 0 0 0 0 0 0 0 0 0 0 0 0 0 0 0 0 0 0 0 0 0 0 0 0 0 0 0 0 0 0 0 0 0 0 0 0
0 0 0 0 0 0 0 0 0 0 0 0 0 0 0 0 0 0 0 0 0 0 0 0 0 0 0 0 0 0 0 0 0 0 0 0 0 0 0 0 0 0 0 0
0 0 0 0 0 0 0 0 0 0 0 0 0 0 0 0 0 0 0 0 0 0 0 0 0 0 0 0 0 0 0 0 0 0 0 0 0 0 0 0 0 0 0 0
Wind_Speed
31 29 30 25 27 22 20 20 16 20 18 25 9 18 14 14 17 18 7 3 3 4 2 6 8 7 5 4 5 5 4 4 2 2 3 4 7 8 9 10 12 12 12 14
39 44 39 31 31 36 25 18 20 23 21 33 33 20 9 16 22 20 12 8 7 7 4 6 5 7 8 7 5 3 2 2 3 4 5 8 8 9 11 12 11 11 13 13
39 41 46 49 27 25 33 28 21 18 25 29 17 14 13 14 15 8 6 5 6 5 3 2 3 4 6 6 6 6 5 5 5 5 6 7 7 8 9 9 10 12 12 12
37 33 41 34 25 25 26 27 26 28 27 27 25 25 22 10 8 6 6 5 7 5 4 3 3 4 5 5 6 6 7 6 5 4 5 5 7 6 7 8 10 11 12 12
39 38 37 46 36 28 29 34 29 33 35 35 33 25 18 13 10 8 6 9 9 8 5 4 4 3 2 4 6 8 7 6 4 3 4 4 5 6 8 9 11 12 13 13
32 37 43 37 34 31 27 43 27 30 33 35 34 25 19 12 11 11 10 9 9 8 6 5 5 4 4 5 5 5 5 5 4 4 5 5 6 7 9 10 12 12 14 13
30 33 39 31 25 26 34 30 27 32 30 28 29 22 15 12 13 11 10 10 9 7 6 5 4 4 5 5 5 4 3 3 4 3 4 5 7 9 10 12 12 12 14 13
34 38 35 23 25 29 32 33 34 34 30 23 16 13 9 10 10 10 11 10 9 8 7 6 4 3 4 3 2 2 2 2 2 3 5 7 8 10 11 10 12 14 15 15
26 37 31 32 31 25 24 27 27 28 24 19 19 18 14 13 12 11 10 10 10 8 7 6 5 4 3 2 2 2 2 3 4 6 7 8 9 9 11 12 12 14 15 16
28 33 35 39 33 29 28 30 29 26 22 21 21 24 16 11 12 11 10 10 10 8 7 8 6 5 4 3 3 4 5 6 6 7 8 10 11 11 13 13 14 16 17 19
35 30 32 38 34 33 36 37 35 33 30 21 18 17 16 12 10 11 10 10 9 8 8 9 7 6 6 5 6 7 7 7 7 9 9 11 13 14 14 16 15 17 18 20
42 32 28 27 19 22 24 23 37 41 37 29 18 15 15 14 14 14 12 11 8 8 8 9 8 8 8 8 8 8 9 10 11 11 13 13 14 16 17 16 17 17 18 20
32 28 28 28 23 24 26 27 27 30 34 31 26 16 16 15 13 13 12 10 9 8 6 8 10 12 13 11 9 9 9 11 13 14 15 17 17 17 19 18 18 19 20 20
24 27 25 25 27 26 27 28 30 30 30 27 26 19 15 13 11 9 10 7 6 6 8 10 11 13 13 10 9 10 12 14 15 17 17 17 19 20 21 22 23 23 21 21
27 25 23 23 26 26 27 29 29 29 28 26 22 16 12 11 11 10 5 6 7 8 10 11 12 14 13 12 11 13 14 16 16 17 19 20 21 22 23 24 25 25 24 22
28 24 24 24 27 28 28 28 26 25 23 21 17 14 12 10 9 10 11 10 11 12 13 14 14 14 14 14 14 16 16 17 19 21 21 22 23 24 25 25 26 26 27 26
27 28 28 27 26 23 24 22 21 20 18 17 15 12 9 9 10 10 10 11 11 12 13 14 16 16 17 16 16 18 18 20 20 21 22 23 24 25 25 26 27 28 29 28
22 22 23 23 21 21 21 21 19 18 17 15 13 12 12 11 11 10 9 10 12 14 17 18 18 17 17 17 18 18 18 19 20 21 22 23 25 26 26 28 29 30 30 30
23 22 21 21 20 19 19 18 18 17 16 14 13 13 11 10 9 8 10 12 13 15 19 18 17 17 17 18 18 18 19 20 21 22 23 25 27 28 29 30 31 32 33 34
17 17 17 18 19 18 17 17 16 16 15 13 12 11 11 11 11 12 13 15 15 14 14 15 16 17 18 18 19 20 21 22 23 25 26 29 30 30 32 33 33 34 35 36
16 16 16 15 16 16 16 15 14 14 13 13 12 12 12 12 12 12 12 13 14 14 15 16 17 19 20 21 21 22 24 26 28 30 31 32 33 34 34 35 36 36 37 37
15 15 15 16 17 17 17 17 17 16 16 16 15 14 14 14 14 15 15 13 14 15 17 18 20 21 22 24 24 26 28 29 31 33 34 35 36 37 37 38 38 38 38 38
16 17 18 18 18 18 18 18 18 18 17 17 17 16 16 16 16 15 16 16 16 17 19 21 23 24 26 27 28 30 31 33 35 36 36 36 37 38 40 40 39 40 40 38
18 19 20 19 19 19 19 19 19 19 19 19 19 18 17 17 18 18 18 18 18 20 22 24 26 27 29 30 31 33 34 36 36 37 39 39 38 38 39 41 41 38 36 36
20 20 20 20 20 20 19 19 19 20 20 20 21 21 21 20 19 20 21 22 20 23 24 26 29 30 30 32 34 36 37 37 37 37 36 37 38 39 39 39 38 37 36 35
21 21 22 22 21 21 21 21 21 21 20 21 22 22 22 22 22 22 23 24 26 26 27 29 29 31 32 34 35 35 35 36 35 35 37 37 37 38 37 37 36 36 36 35
22 22 22 23 24 23 23 23 23 24 23 23 23 24 25 25 25 25 26 26 27 28 30 31 31 32 33 33 34 33 33 34 34 34 34 35 36 35 35 35 35 35 35 35
Wind_Direction
248 258 263 256 263 262 251 259 243 278 282 282 259 287 293 299 304 316 265 241 259 304 48 348 339 340 344 279 270 276 289 295 310 343 353 348 342 337 339 336 333 333 334 336
251 249 257 267 261 266 263 250 267 273 279 218 271 287 280 292 301 292 275 265 251 268 274 290 308 326 318 317 317 302 291 306 337 336 337 339 341 337 333 332 337 338 338 339
251 250 251 260 252 253 268 274 271 254 275 278 280 277 282 299 297 264 214 268 295 263 254 234 268 301 303 302 319 321 315 314 314 317 325 336 341 339 340 343 344 342 344 345
251 250 247 261 259 259 263 270 278 278 278 283 287 286 284 281 226 241 219 271 293 276 253 233 268 302 312 302 299 300 302 300 300 309 322 338 342 345 347 347 345 344 343 343
246 245 259 254 260 264 265 272 274 272 268 273 277 292 291 298 309 299 284 293 301 301 274 273 251 260 272 287 294 294 290 283 285 299 314 330 337 341 341 341 340 338 337 337
248 248 250 261 261 262 277 266 273 275 275 275 282 279 285 289 299 302 297 296 299 300 288 275 279 273 260 266 272 270 268 276 284 299 308 320 328 332 333 335 335 338 338 345
248 254 257 264 267 265 260 272 277 277 279 284 282 284 281 286 292 295 301 303 304 302 289 278 267 256 250 243 245 233 214 251 276 282 302 316 324 324 326 332 339 343 344 347
254 250 254 276 275 261 270 276 277 272 276 287 286 286 282 293 293 296 302 303 298 296 294 292 275 258 252 237 203 221 243 256 276 292 307 313 317 321 325 329 330 330 335 336
266 255 265 277 276 280 288 280 284 285 283 290 286 282 278 285 289 297 297 298 299 296 296 295 284 262 231 230 203 221 258 270 286 302 307 311 317 322 322 323 323 324 325 327
274 274 269 269 275 280 283 282 287 298 299 286 285 287 294 286 291 291 295 294 298 294 289 288 283 271 248 244 251 257 270 281 289 297 307 316 322 323 321 320 322 320 320 321
267 273 277 270 274 276 278 274 278 282 299 300 292 281 270 288 293 292 295 295 292 288 287 288 284 278 273 266 266 274 275 282 289 302 307 315 321 319 321 325 322 318 320 321
262 274 279 277 296 288 288 288 273 274 282 287 289 278 284 288 292 290 290 295 297 297 298 299 294 290 286 284 279 277 285 291 295 297 302 308 311 319 332 331 330 327 326 326
274 279 278 281 287 291 288 287 290 284 282 285 293 282 283 288 290 291 290 291 294 300 310 311 307 308 306 300 292 291 292 298 305 305 305 306 310 312 316 325 330 327 328 330
295 288 281 284 284 290 289 293 298 296 293 293 294 289 290 287 294 283 287 293 302 323 319 319 321 318 319 313 304 304 306 308 306 309 312 317 319 319 316 315 316 318 321 323
293 297 295 293 291 292 295 298 298 297 299 300 300 294 290 295 302 293 305 298 302 313 314 317 319 323 326 323 316 313 311 310 311 314 317 318 318 318 317 317 317 319 320 322
290 296 296 298 296 295 299 301 301 306 310 309 308 305 299 298 302 302 308 298 292 300 310 317 321 329 332 327 323 318 319 317 314 312 313 316 316 315 315 316 317 318 319 320
289 288 295 299 300 304 308 313 315 313 315 315 312 311 311 307 315 318 317 314 316 320 321 326 319 331 329 324 320 314 313 315 315 315 315 316 316 317 318 319 318 319 320 322
299 303 307 309 309 310 312 316 320 324 322 323 322 320 316 311 308 314 321 330 331 328 328 325 331 331 330 330 324 323 323 323 322 321 320 320 319 320 321 321 321 321 322 323
302 308 312 313 316 319 322 322 324 327 327 327 330 330 333 338 340 344 342 336 330 325 326 330 332 334 334 333 332 332 330 327 325 325 324 323 321 321 322 322 321 321 321 322
326 330 332 330 328 328 328 327 329 330 329 334 340 342 343 340 339 341 341 340 338 338 343 343 343 340 338 339 337 335 333 330 326 324 323 322 323 322 322 322 322 322 322 323
339 345 350 354 354 355 354 352 354 354 355 359 1 1 4 0 356 356 352 348 351 351 352 349 345 341 338 335 336 333 331 328 325 324 323 323 323 322 323 323 322 322 322 323
2 7 10 14 17 19 18 22 26 26 25 24 22 19 15 8 3 2 2 2 357 353 348 345 343 341 337 335 334 331 329 328 326 325 324 323 322 322 322 322 321 321 322 322
24 25 26 26 26 27 26 23 21 21 19 15 12 8 6 3 358 355 351 350 352 349 346 343 341 338 336 334 332 330 329 328 326 325 325 325 325 324 323 322 322 321 321 322
23 22 22 22 23 21 19 16 16 13 11 8 4 4 0 358 357 355 355 352 348 345 343 341 339 336 334 333 332 330 329 328 328 326 325 325 325 326 325 323 323 323 323 324
11 11 10 9 8 6 8 9 8 5 3 1 0 359 357 353 349 346 345 344 342 339 338 337 336 335 335 333 331 330 329 329 329 330 331 329 327 327 327 327 326 326 327 328
10 8 6 5 1 359 357 356 354 353 355 353 352 350 349 347 345 344 342 340 338 338 336 334 335 334 335 334 334 334 335 335 335 335 332 332 332 332 331 330 330 330 329 328
4 2 0 359 357 354 352 349 347 344 346 346 344 345 345 344 343 340 340 340 339 338 337 337 338 338 339 339 339 339 340 340 340 338 338 337 337 337 337 336 335 334 332 332